Overview Statistics Trail Chart Weather Telemetry Raw packets
 

This is the latest recevied weather packets stored in our database for station/object IW1CBG-3. If no packets are shown the sender has not sent any weather packets the latest 10 day(s).

<< 9 10 11 12 13 14 15 >>
Time Temp. Humidity Pressure Rain* Wind** Luminosity Snow
1788525977 26.11° C 76% 1027.7 hPa 0 mm - - -
1788525377 26.11° C 75% 1027.3 hPa 0 mm - - -
1788524778 26.11° C 75% 1027.4 hPa 0 mm - - -
1788524177 26.67° C 75% 1027.7 hPa 0 mm - - -
1788523606 26.11° C 75% 1027.3 hPa 0 mm - - -
1788522977 26.67° C 73% 1027.5 hPa 0 mm - - -
1788522377 26.11° C 73% 1027.8 hPa 0 mm - - -
1788521776 26.67° C 72% 1027.8 hPa 0 mm - - -
1788521177 26.67° C 70% 1027.8 hPa 0 mm - - -
1788520578 26.67° C 69% 1028.1 hPa 0 mm - - -
1788519977 26.67° C 67% 1028.1 hPa 0 mm - - -
1788519407 26.67° C 67% 1028.2 hPa 0 mm - - -
1788518777 26.67° C 66% 1028.5 hPa 0 mm - - -
1788518177 26.67° C 66% 1028.5 hPa 0 mm - - -
1788517577 26.67° C 65% 1028.7 hPa 0 mm - - -
1788516977 26.67° C 64% 1028.7 hPa 0 mm - - -
1788516386 26.67° C 65% 1028.7 hPa 0 mm - - -
1788515776 26.11° C 65% 1028.7 hPa 0 mm - - -
1788515176 26.67° C 65% 1028.8 hPa 0 mm - - -
1788514576 26.11° C 67% 1029.2 hPa 0 mm - - -
1788513976 26.67° C 65% 1028.8 hPa 0 mm - - -
1788513376 26.67° C 63% 1028.9 hPa 0 mm - - -
1788512778 25.56° C 59% 1029.1 hPa 0 mm - - -
1788512177 24.44° C 58% 1029.3 hPa 0 mm - - -
1788511577 23.89° C 56% 1029.6 hPa 0 mm - - -

* Rain latest hour (hover to see other rain measurements)
** Current wind speed in m/s (hover to see current wind gust speed)